Weather History for Duluth, MN

Change the Weather History Date:

Friday, January 6, 2012

  Actual Average Record
Temperature  
Mean Temperature 37 °F 10 °F  
Max Temperature 45 °F 19 °F 45 °F (2012)
Min Temperature 28 °F 2 °F -34 °F (1909)
Degree Days  
Heating Degree Days 28 55  
Month to date heating degree days 253 327  
Since 1 July heating degree days 3389 4096  
Cooling Degree Days 0 0  
Month to date cooling degree days 0 0  
Year to date cooling degree days 0 0  
Moisture  
Dew Point 25 °F    
Average Humidity 65    
Maximum Humidity 75    
Minimum Humidity 54    
Precipitation  
Precipitation 0.01 in 0.04 in 1.12 in (1967)
Month to date precipitation 0.01 0.22  
Year to date precipitation 0.01 0.22  
Snow  
Snow 0.10 in 0.60 in 16.30 in (1994)
Month to date snowfall 0.2 4.0  
Since 1 July snowfall 12.0 37.8  
Snow Depth 1.00 in    
Sea Level Pressure  
Sea Level Pressure 29.63 in    
Wind  
Wind Speed 18 mph (WNW)    
Max Wind Speed 24 mph    
Max Gust Speed 33 mph    
Visibility 9 miles    
Events Snow    
T = Trace of Precipitation, MM = Missing Value Source: NWS Daily Summary

Daily Weather History Graph

Daily Weather History Graph

Search for Another Location

Airport:

Trip Planner

Search our weather history database for the weather conditions in past years. The results will help you decide how hot, cold, wet, or windy it might be!

Date:

Astronomy

Jan. 06, 2012 Rise Set
Actual Time 7:53 AM CST 4:35 PM CST
Civil Twilight 7:18 AM CST 5:10 PM CST
Nautical Twilight 6:40 AM CST 5:48 PM CST
Astronomical Twilight 6:03 AM CST 6:25 PM CST
Moon 2:25 PM CST (1/6) 5:35 AM CST (1/6)
Length of Visible Light 9h 51m
Length of Day
8h 42m
Waxing Gibbous, 93% of the Moon is Illuminated
Jan 6
Waxing Gibbous
Jan 9
Full
Jan 16
Last Quarter
Jan 23
New
Jan 30
First Quarter

Hourly Weather History & Observations

Time (CST) Temp. Windchill Dew Point Humidity Pressure Visibility Wind Dir Wind Speed Gust Speed Precip Events Conditions
12:55 AM 43.0 °F 35.4 °F 28.9 °F 58% 29.47 in 10.0 mi West 16.1 mph - N/A   Clear
1:55 AM 39.2 °F 30.5 °F 28.4 °F 65% 29.45 in 10.0 mi West 16.1 mph - N/A   Clear
2:55 AM 41.0 °F 31.9 °F 28.9 °F 62% 29.49 in 10.0 mi West 19.6 mph 27.6 mph N/A   Clear
3:55 AM 39.0 °F 29.0 °F 28.9 °F 67% 29.51 in 10.0 mi West 20.7 mph 26.5 mph N/A   Clear
4:55 AM 37.9 °F 28.2 °F 28.9 °F 70% 29.53 in 10.0 mi West 18.4 mph 26.5 mph N/A   Clear
5:55 AM 37.0 °F 27.7 °F 28.0 °F 70% 29.54 in 10.0 mi West 16.1 mph - N/A   Partly Cloudy
6:55 AM 35.1 °F 25.2 °F 28.0 °F 76% 29.55 in 10.0 mi West 16.1 mph 24.2 mph N/A   Partly Cloudy
7:55 AM 34.0 °F 23.0 °F 27.0 °F 75% 29.58 in 10.0 mi West 18.4 mph - N/A   Scattered Clouds
8:55 AM 35.1 °F 25.2 °F 27.0 °F 72% 29.60 in 10.0 mi West 16.1 mph 24.2 mph N/A   Scattered Clouds
9:02 AM 35.6 °F 25.9 °F 26.6 °F 70% 29.56 in 10.0 mi West 16.1 mph - N/A   Mostly Cloudy
9:55 AM 36.0 °F 25.6 °F 27.0 °F 70% 29.62 in 10.0 mi West 18.4 mph 28.8 mph N/A   Mostly Cloudy
10:55 AM 37.0 °F 27.7 °F 27.0 °F 67% 29.63 in 10.0 mi West 16.1 mph 28.8 mph N/A   Overcast
11:55 AM 37.0 °F 26.4 °F 26.1 °F 65% 29.63 in 10.0 mi WNW 20.7 mph 31.1 mph N/A   Overcast
12:55 PM 37.0 °F 25.9 °F 26.1 °F 65% 29.62 in 10.0 mi WNW 23.0 mph 31.1 mph N/A   Mostly Cloudy
1:03 PM 37.4 °F 27.5 °F 26.6 °F 65% 29.58 in 10.0 mi West 18.4 mph 31.1 mph N/A   Scattered Clouds
1:55 PM 37.9 °F 27.3 °F 26.1 °F 62% 29.62 in 10.0 mi West 21.9 mph 29.9 mph N/A   Scattered Clouds
2:55 PM 39.9 °F 30.5 °F 27.0 °F 60% 29.63 in 10.0 mi West 19.6 mph 25.3 mph N/A   Scattered Clouds
3:55 PM 39.2 °F 29.0 °F 24.8 °F 56% 29.60 in 10.0 mi West 21.9 mph 28.8 mph N/A   Scattered Clouds
4:55 PM 39.0 °F 30.3 °F 24.1 °F 55% 29.66 in 10.0 mi WNW 16.1 mph - N/A   Mostly Cloudy
5:55 PM 37.9 °F 30.5 °F 24.1 °F 57% 29.68 in 10.0 mi WNW 11.5 mph - N/A   Overcast
6:55 PM 37.0 °F 26.4 °F 25.0 °F 62% 29.68 in 10.0 mi West 20.7 mph 28.8 mph 0.00 in   Overcast
7:47 PM 35.6 °F 25.2 °F 24.8 °F 65% 29.65 in 10.0 mi WNW 18.4 mph 27.6 mph 0.00 in Snow Light Snow
7:55 PM 35.1 °F 25.9 °F 26.1 °F 70% 29.70 in 9.0 mi WNW 13.8 mph 24.2 mph 0.00 in Snow Light Snow
8:51 PM 33.8 °F 23.9 °F 26.6 °F 75% 29.66 in 9.0 mi WNW 15.0 mph 25.3 mph 0.00 in Snow Light Snow
8:55 PM 34.0 °F 24.6 °F 26.1 °F 73% 29.71 in 9.0 mi WNW 13.8 mph 23.0 mph 0.00 in Snow Light Snow
9:12 PM 32.0 °F 19.8 °F 26.6 °F 80% 29.67 in 1.8 mi NNW 20.7 mph 32.2 mph 0.00 in Snow Light Snow
9:16 PM 30.2 °F 17.4 °F 26.6 °F 86% 29.67 in 0.8 mi NW 20.7 mph 32.2 mph 0.01 in Snow Light Snow
9:25 PM 30.2 °F 17.1 °F 24.8 °F 80% 29.68 in 2.0 mi NW 21.9 mph 31.1 mph 0.01 in Snow Light Snow
9:36 PM 30.2 °F 18.9 °F 23.0 °F 75% 29.69 in 3.0 mi NW 16.1 mph 27.6 mph 0.01 in Snow Light Snow
9:55 PM 30.0 °F 19.1 °F 23.0 °F 75% 29.75 in 9.0 mi NW 15.0 mph 24.2 mph 0.01 in Snow Light Snow
10:06 PM 28.4 °F 16.2 °F 21.2 °F 74% 29.70 in 9.0 mi NW 17.3 mph 25.3 mph 0.00 in Snow Light Snow
10:29 PM 28.4 °F 15.8 °F 19.4 °F 69% 29.71 in 10.0 mi NW 18.4 mph 28.8 mph 0.00 in   Scattered Clouds
10:51 PM 28.4 °F 16.2 °F 19.4 °F 69% 29.73 in 10.0 mi NW 17.3 mph 29.9 mph 0.00 in   Overcast
10:55 PM 28.9 °F 17.3 °F 19.9 °F 69% 29.79 in 10.0 mi NW 16.1 mph 29.9 mph 0.00 in   Overcast
11:55 PM 28.0 °F 16.5 °F 19.9 °F 72% 29.80 in 9.0 mi NW 15.0 mph 24.2 mph 0.00 in Snow Light Snow